CAPE
411 248 64 9 0 0 0 0 0 0 0 5 9 11 10 9 14 48 47 78 45 86 182 296 402 528 755 966 890 941 1143 1212 247 231 677 791 628 1281 943 956 1078 1107 962
258 44 8 0 0 0 0 0 0 0 2 9 18 47 17 28 27 22 18 12 13 31 105 201 251 455 605 675 781 810 915 1246 941 465 92 0 262 1081 1611 1169 1164 810 702
63 0 0 0 0 0 0 0 0 0 9 19 32 18 20 27 30 34 45 31 20 15 89 138 175 251 331 595 639 669 867 1049 1100 804 591 509 172 471 1051 860 1058 1302 1134
18 0 0 0 0 0 0 0 0 10 41 55 47 33 36 26 29 38 35 9 0 1 4 14 68 93 164 448 590 649 735 952 1024 986 898 797 688 494 473 308 627 832 858
9 0 0 0 0 0 0 4 12 62 64 68 81 53 37 17 34 23 9 3 2 7 5 5 5 4 75 380 546 611 649 858 952 926 840 698 485 368 197 232 364 360 273
3 0 0 0 0 0 0 7 43 85 117 69 68 32 16 23 11 0 0 2 2 4 3 4 4 9 22 116 391 596 627 871 944 835 603 502 321 255 125 90 0 109 463
2 0 0 0 0 0 0 5 117 70 70 50 34 25 30 18 0 0 0 2 2 2 2 5 9 18 26 203 368 382 448 403 611 952 744 534 282 221 224 176 125 437 558
25 13 0 0 0 0 78 116 138 71 87 86 10 25 16 8 3 0 0 4 3 4 5 3 4 13 176 409 453 560 544 587 512 461 541 696 565 541 336 256 237 192 241
39 30 0 0 4 69 49 167 242 54 56 17 21 36 20 19 0 0 0 2 6 6 7 4 92 154 285 233 464 564 619 667 615 636 447 335 257 145 109 371 201 122 72
82 20 0 0 146 67 63 143 237 69 43 58 35 44 51 0 0 0 0 1 5 3 4 9 85 230 227 193 345 568 619 739 790 641 344 202 89 3 0 4 53 0 138
141 37 8 16 121 76 25 188 184 61 54 66 54 39 24 0 0 0 0 3 3 2 120 217 253 157 117 77 212 601 528 504 513 562 512 366 419 355 265 276 197 215 41
232 63 89 7 36 4 101 265 172 65 67 88 57 32 1 0 0 0 0 0 1 3 20 7 0 0 1 0 0 1 1 154 217 484 492 493 400 261 351 297 240 140 83
352 212 390 175 39 126 217 341 264 83 92 45 26 20 12 1 1 0 6 0 0 0 0 1 0 1 2 2 1 1 1 0 1 34 322 336 278 257 192 66 20 84 180
592 509 525 252 298 181 102 14 43 72 88 30 46 17 8 4 0 1 0 10 13 44 0 0 0 0 0 3 2 1 3 3 2 2 3 1 0 0 0 0 70 55 58
751 570 553 146 0 54 50 30 23 38 6 8 2 1 0 0 6 1 0 4 0 45 19 5 0 0 0 0 2 1 0 0 0 0 0 1 2 3 4 3 3 3 1
495 584 434 109 17 16 53 85 8 3 0 0 0 0 0 0 0 1 2 0 1 55 77 73 57 29 0 0 0 4 8 0 0 0 0 0 0 0 3 1 0 0 0
100 690 307 8 2 25 57 69 39 0 0 0 0 0 0 0 0 0 0 0 0 1 21 44 63 39 36 47 29 7 0 0 1 0 0 0 0 0 0 0 0 0 0
667 781 230 138 0 105 83 5 38 36 177 40 0 0 0 0 0 0 0 0 0 0 0 0 0 0 14 12 22 33 27 26 42 35 26 15 15 2 8 22 0 0 0
894 435 180 187 156 111 69 24 67 46 123 82 57 4 0 0 0 0 0 0 0 0 0 0 0 0 0 0 2 9 4 2 1 0 0 0 1 10 30 3 0 15 32
681 467 404 390 192 94 108 97 39 54 99 41 1 0 0 0 0 0 0 0 0 0 0 0 0 0 0 0 0 0 0 0 0 0 0 0 0 0 0 0 2 15 19
523 343 31 56 258 251 146 141 53 84 28 0 0 0 0 0 0 0 0 0 0 0 0 0 0 0 0 0 0 0 0 0 0 0 0 0 0 0 0 0 0 0 0
55 124 1 14 77 54 145 120 71 39 55 18 9 0 0 0 0 0 0 0 0 0 0 0 0 0 0 0 0 0 0 0 0 0 0 0 0 0 0 0 0 0 0
4 4 10 18 2 0 3 66 31 14 9 7 0 0 0 0 0 0 0 0 0 0 0 0 0 0 0 1 0 0 0 0 0 0 0 0 0 0 0 0 0 0 0
0 0 0 0 11 7 11 3 0 0 0 0 0 0 0 0 0 0 0 0 0 0 0 0 0 0 0 0 0 0 0 0 0 0 0 0 0 0 0 0 0 0 0
0 0 0 0 0 0 1 0 0 0 0 0 0 0 0 0 0 0 0 0 0 0 0 0 0 0 0 0 0 0 0 0 0 0 0 0 0 0 0 0 0 0 0
0 0 0 0 0 0 0 0 0 0 0 0 0 0 0 0 0 0 0 0 0 0 0 0 0 0 0 0 0 0 0 0 0 0 0 0 0 0 0 0 0 0 0
CIN
-192 -226 -352 -422 0 0 0 0 0 0 0 -1 -1 0 -1 -1 0 -95 -85 -82 -112 -118 -61 -17 -5 -10 -1 -1 -2 -1 -1 0 -42 0 -30 -16 -10 -6 -1 -9 -4 -2 -2
-245 -370 -458 0 0 0 0 0 0 -1 0 0 -57 -123 -2 -2 -3 -1 -8 0 -86 -227 -140 -86 -51 -1 0 -1 -2 -2 -1 -1 0 -17 -76 0 -55 -10 -5 -9 -5 -2 -3
-349 0 0 0 0 0 0 0 0 -1 0 -1 -2 -3 -3 -2 -2 -1 0 0 0 0 -177 -164 -97 -31 -4 0 0 -2 -3 -2 0 -9 -44 -43 -26 -60 -5 -24 -5 -13 -7
-395 0 0 0 0 0 0 0 0 -1 -119 -101 -125 -2 -119 -1 0 -1 0 -6 0 0 0 -26 -165 -107 -27 0 -1 0 -4 -4 -5 0 0 0 -7 -31 -22 -21 -8 -21 -4
-431 0 0 0 0 0 0 0 -1 -59 -78 -78 -73 -166 -3 -1 -1 -5 -4 -2 0 0 0 0 0 -129 -79 0 0 0 -2 -3 -4 -4 -2 -3 -1 -1 -16 -10 -7 -34 -28
-277 0 0 0 0 0 0 -1 -70 -40 -38 -69 -124 -90 -1 -2 -8 0 -3 0 0 0 0 0 0 0 -160 -31 -2 -2 -2 -3 -3 -4 -2 -3 -7 -3 -42 -36 0 -9 0
-76 0 0 0 0 0 0 -30 -14 -38 -83 -118 -109 -2 -2 -3 0 0 0 0 0 0 0 0 0 0 -117 -5 -3 -8 -7 -13 -11 -4 -4 -8 -4 -5 -5 -17 -12 0 -1
-245 -271 0 0 0 0 -50 -5 -6 -59 -111 -143 -3 -1 -2 -8 -32 -2 0 0 0 0 0 0 0 -86 -4 -1 -3 -1 -3 -5 -9 -8 -18 -15 -14 -14 -17 -6 -15 -12 -8
-210 -219 0 0 -17 -92 -38 -10 -5 -102 -89 -5 -1 -1 -9 -11 0 -1 0 0 0 0 0 0 -8 -2 -8 -24 -5 -5 -3 -1 -4 -10 -33 -55 -58 -64 -35 -1 -3 -1 -3
-155 -189 0 0 -92 -79 -24 -2 -9 -74 -5 -4 -1 -8 -8 0 0 0 0 0 0 0 -9 -115 -17 -4 -9 -27 -10 -4 -3 -1 -1 -2 -40 -62 -90 -9 -2 -3 -28 0 0
-126 -178 -224 -189 -66 -35 -29 -3 -5 -17 -7 -6 -2 -13 -16 0 0 0 0 0 0 -44 -15 -5 -3 -11 -18 -28 -19 -3 -12 -11 -8 -2 -5 -8 -2 -1 -6 -13 -2 0 -36
-109 -153 -131 -85 -60 -2 -4 -1 -4 -26 -9 -4 -6 -4 -2 0 0 0 0 0 0 0 -14 -34 0 0 0 0 0 -6 -38 -36 -31 0 -1 -3 -2 -4 -3 -5 -1 -6 -11
-93 -99 -27 -50 -53 -3 -2 -7 -3 -8 -4 -2 -1 -11 -8 -65 -15 0 -54 0 0 0 0 0 0 0 0 0 0 0 0 0 0 -54 0 0 -2 0 -2 -11 -20 -11 -5
-50 -36 -10 -35 -3 -8 -17 -2 -2 -1 -4 -8 -30 -26 -40 -73 0 -23 0 -78 -53 -4 -5 0 0 0 0 0 0 0 0 0 0 0 0 0 0 0 0 -20 -22 -30 -19
-11 -7 -2 -31 0 -31 -11 -5 -5 -44 -33 -25 -55 -22 0 0 -55 -30 0 -61 -30 -43 -28 -32 0 0 0 0 0 0 0 0 0 0 0 0 0 0 0 0 0 0 0
-50 -2 -6 -5 -20 -2 -2 -55 -214 -16 0 0 0 0 0 0 0 -56 -74 0 -51 -69 -24 -10 -20 -19 0 0 0 0 0 0 0 0 0 0 0 0 0 0 0 0 0
-77 -8 -27 -84 -3 -9 -3 -8 -47 0 0 0 0 0 0 0 0 0 0 0 0 -58 -18 -13 -6 -19 -16 -6 -6 -18 0 0 0 -1 0 0 0 0 0 0 0 0 0
-35 -7 -34 -36 0 -18 -2 -18 -7 -20 -4 -52 0 0 0 0 0 0 0 0 0 0 0 0 0 0 -12 -16 -13 -5 -5 -4 -1 -2 -2 -3 -7 -3 -6 -15 0 0 0
-5 -9 -29 -14 -5 -13 -24 -3 -9 -7 -5 -45 -81 -33 -19 0 0 0 0 0 0 0 0 0 0 0 0 0 -3 -2 -2 -1 -1 0 0 0 -14 -19 -3 -8 -1 -1 -5
-10 -24 -31 -5 -14 -2 -18 -12 -38 -4 -2 -72 -1 0 0 0 0 0 0 0 0 0 0 0 0 0 0 0 0 0 0 0 0 0 0 0 0 0 0 0 -9 -6 -4
-9 -37 -194 -10 -20 -5 -14 -10 -1 -9 -8 -1 0 0 0 0 0 0 0 0 0 0 0 0 0 0 0 0 0 0 0 0 0 0 0 0 0 0 0 0 0 0 0
-102 -111 -35 -9 -43 -58 -37 -8 -9 -4 -1 -4 -3 -2 0 0 0 0 0 0 0 0 0 0 0 0 0 0 0 0 0 0 0 0 0 0 0 0 0 0 0 0 0
-57 -51 -29 -42 -34 0 -25 -3 -8 -20 -15 -5 0 0 0 0 0 0 0 0 0 0 0 0 0 0 0 -1 -1 0 0 0 0 0 0 0 0 0 0 0 0 0 0
0 0 0 -16 -54 -31 -14 -5 0 0 0 0 0 0 0 0 0 0 0 0 0 0 0 0 0 0 0 0 0 0 0 0 0 0 0 0 0 0 0 0 0 0 0
0 0 0 0 -3 0 -2 -2 0 0 0 0 0 0 0 0 0 0 0 0 0 0 0 0 0 0 0 0 0 0 0 0 0 0 0 0 0 0 0 0 0 0 0
0 0 0 0 0 0 0 0 0 0 0 0 0 0 0 0 0 0 0 0 0 0 0 0 0 0 0 0 0 0 0 0 0 0 0 0 0 0 0 0 0 0 0
Wind_Speed
10 15 19 23 28 30 32 33 34 34 33 32 32 33 33 34 35 38 39 39 41 44 43 42 42 40 38 39 42 41 40 38 45 46 40 38 36 26 27 18 17 22 23
12 16 20 25 29 32 33 34 35 35 33 33 33 33 34 35 38 41 44 44 49 51 49 48 48 43 41 39 40 44 46 43 34 38 24 53 51 38 30 26 24 21 20
13 18 22 26 29 32 33 34 34 33 33 34 34 35 35 38 42 44 45 49 51 53 55 51 48 48 46 44 41 41 41 43 38 40 40 41 26 42 40 30 25 23 20
15 19 24 27 31 32 34 34 33 33 34 32 34 35 38 42 45 46 46 50 56 56 54 52 50 49 49 45 44 42 39 39 37 35 40 40 37 40 41 39 28 25 26
17 21 25 28 30 32 33 33 33 33 32 35 37 36 38 44 44 54 55 55 54 50 49 46 51 54 51 48 44 42 39 38 38 37 39 38 38 35 39 35 35 32 36
19 22 26 29 30 31 30 33 33 32 34 35 37 37 43 42 52 54 54 55 47 45 48 43 47 51 53 52 45 43 39 36 37 37 37 39 35 31 36 39 42 43 36
19 23 25 27 28 28 30 31 32 33 34 35 36 37 41 46 54 57 63 54 41 44 37 28 36 39 42 42 36 41 45 40 35 35 38 39 34 30 32 34 36 40 38
19 22 24 25 26 29 29 29 30 32 34 36 35 37 40 47 56 61 62 49 36 27 38 14 20 34 37 34 32 32 39 39 36 35 39 38 39 38 37 36 39 40 40
18 22 22 24 26 28 29 30 29 31 31 33 35 36 43 49 56 60 57 48 40 25 26 11 7 18 34 33 30 31 31 30 33 35 41 40 40 42 38 32 34 37 39
19 21 22 23 23 27 28 29 28 28 28 33 35 37 43 50 56 55 47 41 33 11 5 2 25 34 31 31 28 30 27 25 27 29 35 36 35 34 34 34 34 36 33
18 20 22 22 22 24 25 26 27 27 27 30 33 37 40 48 55 53 48 38 35 2 24 5 27 28 28 28 27 24 26 26 27 29 27 27 28 28 29 28 28 29 34
19 21 21 21 20 23 25 26 27 25 25 29 35 38 40 46 50 49 47 39 39 27 17 19 18 15 14 15 18 21 23 25 26 29 30 30 30 28 27 30 26 27 30
19 21 21 21 21 21 24 25 23 23 24 32 35 38 40 41 44 38 39 34 33 32 25 18 17 16 14 11 11 15 19 24 28 30 30 28 28 25 28 30 30 28 30
19 20 20 20 20 20 22 21 24 26 28 30 31 34 36 38 41 35 33 33 32 27 27 23 24 22 19 15 14 14 14 15 15 18 20 21 23 24 26 26 27 32 32
19 21 20 20 17 17 16 20 21 23 24 27 27 30 32 36 35 29 29 29 27 21 15 14 28 26 21 19 18 19 18 17 14 16 16 17 18 18 19 20 21 20 20
24 20 20 22 21 17 16 18 20 18 20 23 24 28 29 28 21 30 30 25 26 25 20 20 12 17 23 19 19 21 20 18 20 20 18 17 18 18 16 17 16 17 17
14 19 20 16 17 16 13 16 15 16 18 20 22 25 28 31 33 26 23 26 24 23 24 19 19 19 20 21 25 24 25 26 22 21 21 21 20 17 18 17 17 17 16
15 13 15 15 12 11 10 15 15 12 14 16 17 19 24 27 31 34 33 21 24 15 10 13 14 15 20 22 22 24 25 24 25 25 23 21 21 20 18 19 20 18 18
11 9 8 11 12 13 12 12 17 13 17 15 14 13 16 22 28 30 31 31 30 8 12 16 16 19 19 17 19 22 24 25 25 25 26 25 26 25 22 21 20 20 18
9 10 13 9 13 13 17 17 11 14 14 17 21 23 24 23 26 26 28 29 29 27 25 28 29 25 23 23 26 26 26 26 26 26 26 26 26 26 27 27 26 25 24
7 20 18 13 20 20 6 12 13 12 15 16 19 22 24 23 25 26 26 27 26 26 26 25 26 26 26 26 25 26 26 27 27 27 27 26 27 26 26 26 26 27 27
16 17 18 29 20 23 17 10 11 12 15 15 17 18 23 24 24 25 26 26 26 26 25 26 26 27 27 28 27 27 27 28 29 30 29 29 29 28 29 28 27 27 27
14 16 15 17 17 20 17 15 14 14 15 17 20 22 23 23 24 24 24 25 25 25 26 26 27 27 28 28 27 27 29 29 30 30 31 30 30 30 30 29 29 30 30
18 18 17 21 23 18 8 16 15 16 18 19 20 21 22 23 23 23 24 25 25 25 26 26 26 28 27 26 27 28 29 30 30 31 32 31 30 31 31 31 30 31 32
14 10 9 7 10 14 13 15 16 18 17 19 20 20 20 21 22 23 24 25 25 25 25 25 26 27 24 25 27 29 30 31 31 33 32 31 31 31 31 31 32 33 33
17 15 13 9 12 14 15 16 17 16 18 19 19 19 20 21 21 22 23 24 24 24 24 24 26 27 25 26 28 30 32 33 33 34 32 30 32 33 33 33 33 33 33
Wind_Direction
340 342 342 342 340 338 338 336 334 332 331 330 329 327 325 324 322 318 315 312 307 302 297 294 289 286 283 279 278 277 277 276 271 262 269 273 277 282 282 280 281 285 288
336 338 339 340 338 336 336 335 334 332 332 330 328 327 326 324 321 317 313 310 306 301 296 291 286 285 281 277 275 274 275 277 275 275 284 261 259 274 277 275 277 282 285
330 333 335 336 336 336 335 335 335 334 332 331 329 328 328 326 321 318 315 310 307 301 296 289 285 280 278 275 272 271 272 273 276 275 276 269 251 271 276 279 276 275 272
328 331 333 334 334 334 335 336 335 334 333 333 332 330 329 327 323 320 318 314 309 303 297 290 283 278 275 273 270 267 267 268 270 271 270 271 274 272 271 280 276 278 279
325 328 331 333 333 335 335 336 336 336 335 335 333 332 330 329 326 321 318 315 312 304 299 293 284 275 270 268 267 264 262 263 264 266 268 269 269 273 274 280 283 283 277
323 327 331 332 335 336 337 337 337 338 338 336 336 334 331 331 328 327 323 318 312 307 300 297 286 272 264 262 262 260 259 258 260 262 265 266 268 273 275 277 278 280 285
323 328 331 335 337 340 339 339 340 340 340 340 340 338 336 334 331 328 313 315 315 306 309 304 292 278 267 263 263 259 255 256 259 260 262 263 270 275 278 280 283 284 284
324 329 333 337 340 342 342 342 342 344 344 344 345 343 341 340 334 329 314 318 317 315 295 292 298 280 265 263 263 260 252 253 256 260 261 265 267 272 277 282 281 283 284
325 329 335 338 340 343 343 343 345 348 349 351 351 349 344 344 342 324 324 315 314 325 316 236 235 291 265 264 262 255 254 255 258 259 261 265 268 271 275 283 284 281 279
325 332 336 338 342 341 343 344 349 351 353 353 353 354 351 349 349 327 317 310 284 334 308 293 220 242 260 259 259 252 254 260 262 264 263 267 271 274 275 277 283 280 280
328 332 335 338 340 341 343 347 349 350 354 355 357 356 356 357 348 337 328 322 310 312 261 46 267 265 267 263 259 259 261 267 268 269 273 275 276 278 279 280 279 280 276
327 329 332 335 337 337 338 343 347 351 356 358 357 356 356 360 350 345 342 342 347 333 311 341 329 322 308 281 272 268 271 274 276 276 276 277 279 281 284 284 286 282 282
324 326 330 333 334 335 336 341 347 355 359 357 357 356 355 4 360 339 342 345 354 11 1 350 16 12 10 354 324 300 287 278 274 274 278 283 285 291 294 290 287 288 286
319 324 327 329 331 336 339 347 349 352 356 356 0 359 359 5 349 341 342 347 353 1 13 18 33 32 26 15 7 355 338 321 310 299 296 303 302 301 298 296 287 285 288
319 321 324 327 332 337 339 350 354 359 2 0 7 2 2 1 342 331 339 348 350 347 344 356 25 26 18 17 14 9 2 354 352 341 335 326 324 317 319 311 304 307 299
324 318 321 325 331 334 343 354 1 13 15 18 17 9 13 22 340 342 343 344 349 355 360 7 359 14 27 22 18 19 13 9 16 12 358 351 348 338 336 335 339 327 317
319 312 320 331 331 333 347 359 6 8 17 23 24 13 17 14 14 340 336 341 349 351 357 357 2 4 8 10 32 34 28 28 18 14 15 12 4 347 344 333 336 339 338
299 313 324 327 333 346 2 356 355 14 17 23 31 26 14 9 6 11 4 337 343 335 342 345 345 348 360 4 5 11 15 11 21 17 11 3 360 6 358 339 353 341 336
305 318 316 330 337 337 348 357 345 2 7 22 35 48 44 30 14 8 7 25 38 349 320 331 335 345 344 336 343 355 3 8 5 7 9 5 7 4 351 350 350 357 346
316 314 327 339 332 326 329 331 13 358 11 358 340 323 317 316 336 336 353 4 6 355 349 22 20 354 345 345 356 1 360 0 1 359 360 1 356 357 359 2 7 7 352
336 314 285 324 308 303 16 336 353 5 359 13 345 341 322 309 338 349 345 350 350 353 352 341 357 356 358 353 344 347 353 356 359 359 359 2 358 353 353 356 349 341 339
337 337 320 291 298 276 324 20 10 3 1 8 7 12 354 342 349 346 352 351 349 353 352 360 357 1 1 4 3 359 357 352 348 346 344 344 345 347 342 342 344 343 340
333 331 328 301 304 314 306 345 6 10 358 353 343 346 346 349 350 344 344 346 351 354 354 360 3 4 1 1 7 5 358 354 350 349 346 345 345 345 343 341 338 335 334
315 307 306 315 279 286 5 336 352 349 345 340 341 340 346 345 348 352 350 351 351 354 357 1 3 2 2 2 1 1 358 354 350 346 341 341 341 340 340 339 338 336 333
9 306 321 309 329 340 345 343 344 343 349 341 342 346 350 352 353 353 353 354 357 1 3 5 5 3 13 7 2 355 349 343 344 340 343 344 343 342 342 340 337 335 333
71 66 80 54 352 341 338 342 342 355 340 335 346 349 351 350 352 354 355 358 360 4 6 7 3 358 359 358 352 352 346 343 341 338 344 346 342 342 341 339 338 336 334